Location: Podia
(1.5569°N, 32.3469°E)
Time: 10:52:41
(UTC+00:00)

N. Korean satellite - Pass Details

Date: 11 August 2020
Orbit: 455 x 503 km, 97.2° (Epoch: 22 September)

Event Time Altitude Azimuth Distance (km) Brightness Sun altitude
Rises 03:10:08 0° 6° (N) 2,540 10.5 -10.6°
Reaches altitude 10° 03:12:12 10° 3° (N) 1,670 9.5 -10.1°
Maximum altitude 03:15:46 66° 281° (W) 540 6.5 -9.3°
Drops below altitude 10° 03:19:24 10° 198° (SSW) 1,700 9.0 -8.4°
Sets 03:21:30 0° 195° (SSW) 2,590 9.9 -7.9°
